CZ-3A R/B, 41435

Orbit data source: Space-Track

CZ-3A R/B, 41435 is space debris in HEO originally from a launch on Tue, 29 Mar 2016 UTC launched from the Xichang Space Center, China (XSC). Debris objects in space refer to the collection of defunct objects orbiting the Earth. Examples of debris include non-operational satellites, rocket bodies, and fragments generated from explosions, collisions, or faulty payload assembly.

Loading next visibility...
Identifier
41435, 2016-021B
Orbit
HEO
Country
Flag of CNCN / PRC
Related business
Manufacturer
CALT
Mission
Spacecraft
Bus & Motor
CZ-3A STAGE 3, Unknown motor
Mass
~2,800 kg wet, ~2,800 kg dry
Launch date (UTC)
2016-03-29 (10 years ago)
Launch vehicle
Unknown
Launch site
Xichang Space Center, China (XSC)
Object type
Payload
Rocket body
Debris
Shape & HBR
Cyl + 1 Nozzle, 6.2 m
Radar Cross Section
32.704 m², Large (>1 m²)

Expand to show TLE details & history
Last TLE update: 5 days ago

TLE from 5 days ago
0 CZ-3A R/B
1 41435U 16021B   25336.18616258 -.00000175  00000-0  00000-0 0  9997
2 41435  55.0574  38.3622 6647581 250.6530  30.2317  2.39506635 84262
Epoch: 2025-12-02T04:28Z
TLE epoch observation values (Epoch: 2025-12-02T04:28:04.446Z)
Latitude
-0.00002°
Longitude
-99.87722°
Altitude
10,544.906 km
Speed
5.497 km/s
True Right ascension
02h 33m 39s
True Declination
0° 00' 00"
Sunlit
Object was in daylight at epoch
Visualization orbit readout
Latitude
Unknown
Longitude
Unknown
Altitude
Unknown
Speed
Unknown
Apparent Right ascension
Unknown
Apparent Declination
Unknown
Sunlit
N/A
Visualization observer readout
Local Sidereal Time
13:18:44
Azimuth
Unknown
Elevation
Unknown
Doppler factor
Unknown
Orbital elements
Apogee altitude
32,905.126 km
Perigee altitude
1,532.559 km
Semi-major axis
23,596.98 km
Eccentricity
0.66476
Inclination
55.0574°
RAAN
38.3622°
Arg. of periapsis
250.653°
True anomaly
109.31705°
Mean anomaly
30.2317°
Eccentric anomaly
64.65283°
Mean motion
0.59877 °/min
Orbital period
601.23 mins
BSTAR
0
Loading maneuver chart data...
Computing Atmospheric mass density...
Loading historical data...
Loading historical data...
Loading historical data...
Loading historical data...
Loading historical data...
Loading historical data...
Loading historical data...
Other satellites on launch #21 in the year 2016 (2016-03-29 UTC)

Documentation

Showing up to 5 results
|